Regional Weather Roundup
Issued by NWS

Home | Current Version | Previous Version | Graphics & Text | Print | Product List | Glossary Off
Versions: 1 2 3 4 5 6 7 8 9 10 11 12 13 14 15 16 17 18 19 20 21 22 23 24 25 26 27 28 29 30 31 32 33 34 35 36 37 38 39 40 41 42 43 44 45 46 47 48 49 50

000
ASUS43 KMKX 241324
RWRWI

WISCONSIN REGIONAL WEATHER ROUNDUP
NATIONAL WEATHER SERVICE MILWAUKEE/SULLIVAN WI
800 AM CDT SUN MAY 24 2015

NOTE: "FAIR" INDICATES FEW OR NO CLOUDS BELOW 12,000 FEET WITH NO
SIGNIFICANT WEATHER AND/OR OBSTRUCTIONS TO VISIBILITY.

WIZ001-002-006>008-014>016-023>028-241400-
NORTHWEST WISCONSIN

CITY           SKY/WX    TMP DP  RH WIND       PRES   REMARKS
SUPERIOR ARPT  PTSUNNY   59  49  70 CALM      30.10F
ASHLAND        PTSUNNY   58  49  72 S3        30.12F
HAYWARD        CLOUDY    61  49  64 CALM      30.11F
SIREN          CLOUDY    59  51  74 CALM      30.09S
CUMBERLAND     CLOUDY    61  45  55 E7        30.10S
RICE LAKE      CLOUDY    62  47  58 E5        30.11S
CHETEK         CLOUDY    61  49  64 E3        30.10S
LADYSMITH      PTSUNNY   62  47  56 E6        30.13S
EAU CLAIRE     CLOUDY    62  47  57 CALM      30.08F
MENOMONIE      CLOUDY    60  49  67 CALM      30.08F
NEW RICHMOND   CLOUDY    60  48  64 E6        30.09R
OSCEOLA        CLOUDY    59  52  76 E5        30.11R
$$

WIZ003>005-009-010-017-018-241400-
NORTH CENTRAL WISCONSIN

CITY           SKY/WX    TMP DP  RH WIND       PRES   REMARKS
MANITOWISH WTR PTSUNNY   61  48  63 S5        30.14F
ARBOR VITAE    PTSUNNY   64  47  54 CALM      30.14F
WOODRUFF       PTSUNNY   64  47  54 CALM      30.14F
RHINELANDER    PTSUNNY   63  47  55 E3        30.15F
EAGLE RIVER    CLOUDY    63  48  59 CALM      30.14F
LAND O LAKES   CLOUDY    62  48  61 CALM      30.15F
PHILLIPS       CLOUDY    62  47  58 E3        30.12F
TOMAHAWK       CLOUDY    59  51  75 CALM      30.15S
MEDFORD        CLOUDY    60  47  62 E3        30.13S
MERRILL        CLOUDY    60  50  68 CALM      30.14F
$$

WIZ029-030-035-036-043>047-241400-
CENTRAL WISCONSIN

CITY           SKY/WX    TMP DP  RH WIND       PRES   REMARKS
WAUSAU         CLOUDY    60  48  64 E3        30.12F
MOSINEE        SUNNY     61  48  63 SE5       30.15S
MARSHFIELD     CLOUDY    62  48  60 SE5       30.12F
STEVENS POINT  CLOUDY    61  47  61 E3        30.14F
WAUPACA        CLOUDY    61  51  68 CALM      30.14F
WAUTOMA        CLOUDY    60  49  67 CALM      30.14F
WISC RAPIDS    LGT RAIN  64  44  48 SE3       30.14S
CAMP DOUGLAS   CLOUDY    59  59  99 E3        30.10F
$$

WIZ011>013-019>022-031-037>040-048>050-241400-
NORTHEAST WISCONSIN

CITY           SKY/WX    TMP DP  RH WIND       PRES   REMARKS
ANTIGO         CLOUDY    63  47  56 SE7       30.15S
SHAWANO        CLOUDY    62  52  69 CALM      30.14F
OCONTO         CLOUDY    62  50  66 CALM      30.14S
STURGEON BAY   CLOUDY    63  45  51 S5        30.17F
GREEN BAY      CLOUDY    62  47  57 S5        30.15F
MANITOWOC      CLOUDY    55  48  77 E6        30.17F
APPLETON       PTSUNNY   61  46  59 VRB5      30.15F
CLINTONVILLE   CLOUDY    61  46  59 S5        30.14F
OSHKOSH        CLOUDY    65  51  60 S9        30.14F
$$

WIZ032>034-041-042-053>061-241400-
SOUTHWEST WISCONSIN

CITY           SKY/WX    TMP DP  RH WIND       PRES   REMARKS
LA CROSSE      CLOUDY    61  51  70 S3        30.09S
SPARTA         CLOUDY    56  50  78 CALM      30.10F
VIROQUA        CLOUDY    60  49  68 S10       30.11R
BOSCOBEL       LGT RAIN  59  54  83 CALM      30.12S
PRAIRIE DU CHI LGT RAIN  61  53  75 SE5       30.11R
PLATTEVILLE    CLOUDY    60  56  86 E7        30.14R
$$

WIZ056-057-062-063-064-067-068-241400-
SOUTH CENTRAL WISCONSIN

CITY           SKY/WX    TMP DP  RH WIND       PRES   REMARKS
REEDSBURG      LGT RAIN  58  51  78 S3        30.12S
BARABOO/DELLS  CLOUDY    62  48  58 S14       30.13R
LONE ROCK      LGT RAIN  59  53  80 CALM      30.13F
MINERAL POINT  LGT RAIN  61  55  82 SE5       30.14R
MADISON        LGT RAIN  63  51  65 S7        30.14F
MIDDLETON      CLOUDY    63  52  67 CALM      30.14F
WATERTOWN      CLOUDY    62  50  66 S5        30.15S
MONROE         DRIZZLE   61  54  77 SE6       30.14S
JANESVILLE     CLOUDY    64  52  63 CALM      30.15F
$$

WIZ051-052-058>065-066-070>072-241400-
SOUTHEAST WISCONSIN

CITY           SKY/WX    TMP DP  RH WIND       PRES   REMARKS
MILWAUKEE      CLOUDY    62  48  60 S6        30.17F
WAUKESHA       NOT AVBL
MILWAUKEE/TIMM MOSUNNY   61  48  63 CALM      30.17F
RACINE         CLOUDY    62  48  60 S5        30.19F
BURLINGTON     CLOUDY    58  52  81 CALM      30.18R
KENOSHA        CLOUDY    64  51  62 S6        30.18S
FOND DU LAC    CLOUDY    64  49  57 SE5       30.14F
SHEBOYGAN        N/A     60  47  61 CALM      30.16S
WEST BEND      CLOUDY    61  52  72 CALM      30.16F
JUNEAU         CLOUDY    62  50  64 SE5       30.15F
$$

LSZ147-162-241400-
LAKE SUPERIOR

STATION/POSITION TIME  TEMP    WIND        PRES    WAVE
                       AIR SEA DIR/SP/G            HT/PER
                 (UTC) (F)     (DEG/KT/KT) (MB)    (FT/S)
W MID LAKE BUOY  1250   43 36  220/  6/  8   N/A     1
DEVILS ISLAND    1300   58     230/  7/  8   N/A
PORT WING        1240   61      CALM  /  2   N/A
SAXON HARBOR     1200   56     200/  4/  6   N/A
$$

LMZ867-665-643>646-241400-
LAKE MICHIGAN

STATION/POSITION TIME  TEMP    WIND        PRES    WAVE
                       AIR SEA DIR/SP/G            HT/PER
                 (UTC) (F)     (DEG/KT/KT) (MB)    (FT/S)
CHAMBERS ISLAND  1200   62     180/  3/  6   N/A
N MID LAKE BUOY  1250   43 36  170/ 12/ 12   N/A     1
NORTHPORT PIER   1200   49     110/  5/  7   N/A
SISTER BAY       1217   67     140/  6/  6   N/A
KEWAUNEE LAKESHO 1200   50     160/  2/  3   N/A
SHEBOYGAN LAKESH 1300   51     170/  6/  6   N/A
PORT WASHINGTON  1200   52      CALM  /  3   N/A
ATWATER BUOY     1200   48 46   CALM  /  2   N/A
MILWAUKEE LAKESH 1200   51      70/  1/  1   N/A
S MID LAKE BUOY  1250   45 38  160/  8/  8   N/A     0
$$

TC  - TEMPERATURE IN CELSIUS
VSB - VISIBILITY IN STATUTE MILES
WCI - WIND CHILL INDEX
HX  - HEAT INDEX



USA.gov is the U.S. government's official web portal to all federal, state and local government web resources and services.